x

Ilm2 - 5 Miles Se Of Wrightsville Beach, Nc (41038) Weather Station

8:53am - Sat 23rd May 2015 All times are EDT. -4 hours from GMT.

  • Wind
    11mph, 16mph gusts
  • Sea Temp 76°f
  • Air Temp 72°f
  • Sea Pressure 1028.9mb
  • Ilm2 - 5 Miles Se Of Wrightsville Beach, Nc
  • Ilm2 - 5 Miles Se Of Wrightsville Beach, Nc

More Historic Weather Station data

Upgrade to MSW Pro to gain access to the past 30 days of data for over 8000 Wavebouys and Weather Stations around the globe.

Join Pro

Comparision Forecast

View Surf forecast
   
Sat 05/23 8:53am 11 16 mph 1028.9mb 76f 72f
8:38am 11 18 mph 1028.7mb 76f 71f
8:23am 11 18 mph 1028.5mb 76f 71f
8:08am 11 18 mph 1028.3mb 76f 71f
7:53am 11 16 mph 1028.1mb 76f 71f
7:38am 11 16 mph 1028mb 76f 71f
7:23am 13 18 mph 1027.8mb 76f 71f
7:08am 13 16 mph 1027.7mb 76f 71f
6:53am 11 16 mph 1027.5mb 76f 71f
6:38am 11 16 mph 1027.3mb 76f 71f
6:23am 11 16 mph 1027.1mb 76f 71f
6:08am 11 16 mph 1026.9mb 76f 70f
5:08am 11 16 mph 1025.8mb 76f 70f
4:53am 11 13 mph 1025.6mb 76f 71f
4:38am 9 13 mph 1025.6mb 76f 71f
4:23am 11 16 mph 1025.5mb 76f 70f
4:08am 9 16 mph 1025.3mb 76f 70f
3:53am 9 16 mph 1025.3mb 76f 70f
3:38am 9 13 mph 1025.2mb 76f 71f
3:23am 9 13 mph 1025.1mb 76f 71f
3:08am 9 13 mph 1025.1mb 76f 71f
2:53am 9 13 mph 1025.1mb 76f 71f
2:38am 9 11 mph 1025mb 76f 71f
2:23am 9 13 mph 1024.9mb 76f 71f
2:08am 9 13 mph 1025mb 76f 71f
1:53am 9 11 mph 1024.9mb 76f 71f
1:38am 9 13 mph 1025.1mb 76f 71f
1:23am 7 11 mph 1025.2mb 76f 71f
1:08am 9 11 mph 1025.2mb 76f 71f
12:53am 9 13 mph 1025.2mb 76f 71f
12:38am 9 13 mph 1025.1mb 76f 71f
12:23am 9 11 mph 1025.2mb 76f 71f
12:08am 9 13 mph 1025.2mb 76f 71f
Fri 05/22 11:53pm 7 11 mph 1025.1mb 76f 71f
11:38pm 7 13 mph 1025mb 76f 71f
11:23pm 9 13 mph 1024.8mb 76f 71f
11:08pm 7 11 mph 1024.8mb 76f 71f
10:53pm 7 11 mph 1024.7mb 76f 71f
10:38pm 7 11 mph 1024.6mb 76f 71f
10:23pm 7 9 mph 1024.5mb 76f 71f
10:08pm 4 11 mph 1024.3mb 76f 71f
9:53pm 7 11 mph 1024.2mb 76f 71f
9:38pm 4 11 mph 1023.9mb 76f 70f
9:23pm 4 7 mph 1023.6mb 76f 70f
9:08pm 4 7 mph 1023.5mb 76f 70f
8:53pm 4 9 mph 1023.5mb 76f 70f
8:38pm 4 9 mph 1023.4mb 76f 70f
8:23pm 4 7 mph 1023.3mb 76f 70f
8:08pm 4 9 mph 1023.1mb 76f 70f
7:53pm 4 7 mph 1022.9mb 76f 70f
7:38pm 4 7 mph 1022.6mb 76f 71f
7:23pm 4 9 mph 1022.4mb 76f 71f
7:08pm 7 9 mph 1022.2mb 76f 70f
6:53pm 7 11 mph 1022.2mb 77f 70f
6:38pm 7 9 mph 1022.1mb 77f 71f
6:23pm 7 9 mph 1022.1mb 77f 71f
6:08pm 4 9 mph 1022.1mb 77f 70f
5:53pm 7 11 mph 1022.1mb 77f 70f
5:38pm 7 11 mph 1022.2mb 76f 69f
5:23pm 4 9 mph 1022.2mb 77f 70f
5:08pm 7 11 mph 1022.1mb 77f 70f
4:53pm 4 9 mph 1022.1mb 77f 69f
4:38pm 7 11 mph 1021.9mb 77f 69f
4:23pm 4 9 mph 1021.9mb 77f 68f
4:08pm 7 9 mph 1021.9mb 77f 69f
3:53pm 7 11 mph 1021.9mb 77f 68f
3:38pm 7 9 mph 1022mb 77f 68f
3:23pm 4 13 mph 1021.9mb 76f 68f
3:08pm 7 11 mph 1021.9mb 76f 68f
2:53pm 7 11 mph 1021.9mb 76f 68f
2:38pm 7 11 mph 1021.9mb 76f 67f
2:23pm 7 13 mph 1021.9mb 76f 67f
2:08pm 9 13 mph 1021.9mb 76f 67f
1:53pm 7 13 mph 1021.9mb 76f 67f
1:38pm 7 11 mph 1021.9mb 76f 67f
1:23pm 7 11 mph 1021.9mb 76f 66f
1:08pm 9 16 mph 1021.8mb 76f 66f
12:53pm 9 16 mph 1021.9mb 76f 66f
12:38pm 11 18 mph 1021.9mb 76f 66f
12:23pm 9 13 mph 1021.7mb 76f 65f
12:08pm 11 18 mph 1021.7mb 76f 65f
11:53am 13 20 mph 1021.7mb 76f 65f
11:38am 13 20 mph 1021.7mb 76f 65f
11:23am 11 18 mph 1021.6mb 76f 65f
11:08am 13 20 mph 1021.5mb 76f 65f
10:53am 16 25 mph 1021.3mb 76f 65f
10:38am 16 22 mph 1021mb 76f 65f
10:23am 18 22 mph 1020.9mb 76f 64f
10:08am 18 25 mph 1020.8mb 76f 65f
9:53am 18 27 mph 1020.8mb 76f 64f
9:38am 18 27 mph 1020.6mb 76f 64f
9:23am 18 25 mph 1020.5mb 76f 64f
9:08am 18 25 mph 1020.3mb 76f 64f
8:53am 20 27 mph 1020mb 76f 64f
8:38am 20 29 mph 1020mb 76f 64f
8:23am 18 27 mph 1019.8mb 76f 64f
8:08am 20 27 mph 1019.5mb 76f 63f
7:53am 20 25 mph 1019.3mb 76f 63f
7:38am 18 27 mph 1019.2mb 76f 63f
7:23am 18 25 mph 1018.9mb 76f 64f
7:08am 20 25 mph 1018.7mb 76f 64f
6:53am 18 25 mph 1018.1mb 76f 64f
6:38am 18 25 mph 1018mb 76f 63f
6:23am 18 25 mph 1017.7mb 76f 63f
6:08am 18 25 mph 1017.3mb 76f 64f
5:53am 18 27 mph 1017mb 76f 63f
5:38am 16 22 mph 1016.7mb 76f 64f
5:23am 16 22 mph 1016.6mb 76f 64f
5:08am 16 22 mph 1016.4mb 76f 64f
4:53am 16 22 mph 1016.2mb 76f 64f
4:38am 18 25 mph 1016.1mb 76f 64f
4:23am 18 25 mph 1015.9mb 76f 64f
4:08am 18 25 mph 1015.6mb 76f 64f
3:53am 16 20 mph 1015.5mb 76f 64f
3:38am 16 22 mph 1015.5mb 76f 65f
3:23am 16 20 mph 1015.3mb 76f 65f
3:08am 16 22 mph 1015mb 76f 65f
2:53am 16 22 mph 1015mb 76f 65f
2:38am 16 20 mph 1015mb 76f 65f
2:23am 16 22 mph 1014.9mb 76f 65f
2:08am 16 20 mph 1015mb 76f 65f
1:53am 11 20 mph 1014.8mb 76f 66f
1:38am 13 18 mph 1014.6mb 76f 66f
1:23am 13 20 mph 1014.4mb 76f 66f
1:08am 13 20 mph 1014.7mb 76f 66f
12:53am 13 18 mph 1014.2mb 76f 66f
12:38am 13 18 mph 1013.7mb 76f 67f
12:23am 18 22 mph 1013.4mb 76f 67f
12:08am 16 20 mph 1012.9mb 76f 67f
Thu 05/21 11:53pm 16 22 mph 1012.9mb 76f 68f
11:38pm 16 22 mph 1012.5mb 76f 68f
11:23pm 16 25 mph 1012.3mb 76f 68f
10:53pm 18 25 mph 1012mb 76f 69f
10:08pm 18 25 mph 1012mb 76f 70f
9:53pm 18 25 mph 1011.9mb 76f 70f
9:38pm 18 25 mph 1011.7mb 76f 70f
9:23pm 18 27 mph 1011.4mb 76f 71f
9:08pm 18 25 mph 1011.7mb 76f 72f
8:53pm 18 25 mph 1011.4mb 76f 72f
8:38pm 20 27 mph 1010.4mb 76f 73f
8:23pm 20 29 mph 1010.3mb 77f 74f
8:08pm 22 29 mph 1009.9mb 77f 75f
7:53pm 13 18 mph 1009.7mb 77f 76f
7:38pm 16 20 mph 1009.5mb 77f 76f
7:23pm 13 20 mph 1009.2mb 77f 76f
7:08pm 9 18 mph 1009.1mb 77f 76f
6:53pm 7 11 mph 1009.1mb 77f 75f
6:38pm 4 9 mph 1008.9mb 77f 75f
6:23pm 4 9 mph 1008.5mb 77f 74f
6:08pm 7 11 mph 1008.9mb 77f 74f
5:53pm 4 11 mph 1008.3mb 77f 73f
5:38pm 13 20 mph 1008.5mb 77f 77f
5:23pm 18 22 mph 1008.1mb 77f 77f
5:08pm 18 25 mph 1007.5mb 77f 77f
4:53pm 18 25 mph 1007.7mb 77f 77f
4:38pm 20 27 mph 1007.6mb 77f 77f
4:23pm 18 25 mph 1007.1mb 77f 77f
4:08pm 18 25 mph 1007.3mb 77f 77f
3:53pm 18 22 mph 1007.4mb 77f 77f
3:38pm 18 25 mph 1007.3mb 77f 77f
3:23pm 18 25 mph 1007.9mb 77f 78f
3:08pm 18 25 mph 1008.2mb 77f 78f
2:53pm 18 25 mph 1008.5mb 77f 78f
2:38pm 16 22 mph 1008.9mb 77f 78f
2:23pm 16 20 mph 1008.9mb 77f 78f
2:08pm 13 18 mph 1009.1mb 77f 78f
1:53pm 13 20 mph 1009.2mb 77f 77f
1:38pm 13 18 mph 1009.5mb 77f 77f
1:23pm 13 18 mph 1009.6mb 77f 77f
1:08pm 13 18 mph 1009.9mb 77f 77f
12:53pm 13 20 mph 1010mb 77f 77f
12:38pm 13 20 mph 1010.3mb 77f 77f
12:23pm 13 18 mph 1010.6mb 77f 77f
12:08pm 13 20 mph 1010.6mb 77f 77f
11:53am 13 18 mph 1010.8mb 77f 77f
11:38am 13 18 mph 1011mb 77f 76f
11:23am 13 18 mph 1011.1mb 77f 76f
11:08am 11 16 mph 1011.2mb 77f 76f
10:53am 11 16 mph 1011.3mb 77f 77f
10:38am 11 16 mph 1011.2mb 77f 76f
10:23am 11 13 mph 1011mb 76f 76f
10:08am 9 13 mph 1011.2mb 76f 77f
9:53am 9 11 mph 1011.2mb 76f 77f
9:38am 9 11 mph 1011.4mb 76f 77f
9:23am 9 11 mph 1011.4mb 76f 77f
9:08am 7 11 mph 1011.4mb 76f 77f
8:53am 9 13 mph 1011.5mb 76f 77f
8:38am 9 13 mph 1011.4mb 76f 77f
8:23am 9 13 mph 1011.5mb 76f 76f
8:08am 7 11 mph 1011.4mb 76f 77f
7:53am 7 11 mph 1011.2mb 76f 77f
7:38am 9 11 mph 1011.1mb 76f 77f
7:23am 11 16 mph 1011.2mb 76f 76f
7:08am 11 16 mph 1011.4mb 76f 76f
6:53am 13 18 mph 1011.3mb 76f 76f
6:38am 13 20 mph 1011.5mb 76f 75f
6:23am 13 20 mph 1011.6mb 76f 75f
6:08am 16 22 mph 1011.4mb 76f 75f
5:53am 13 18 mph 1011.2mb 76f 75f
5:38am 16 20 mph 1011.1mb 76f 75f
5:23am 13 18 mph 1010.9mb 76f 75f
5:08am 13 20 mph 1010.8mb 75f 75f
4:53am 2 7 mph 1011mb 75f 75f
4:38am 2 7 mph 1011mb 76f 76f
4:23am 4 7 mph 1011.1mb 76f 76f
4:08am 2 7 mph 1011mb 76f 76f
3:53am 4 9 mph 1011.1mb 76f 76f
3:38am 4 9 mph 1011.4mb 76f 76f
3:23am 4 9 mph 1011.4mb 76f 76f
3:08am 4 7 mph 1011.4mb 76f 76f
2:53am 2 4 mph 1011.7mb 76f 76f
2:38am 4 7 mph 1012.1mb 75f 76f
2:23am 2 4 mph 1012.1mb 76f 76f
2:08am 2 4 mph 1012.3mb 76f 76f
1:53am 2 4 mph 1012.6mb 76f 76f
1:38am 2 4 mph 1012.8mb 76f 76f
1:23am 2 4 mph 1012.9mb 76f 77f
1:08am 2 4 mph 1013.2mb 76f 76f
12:53am 2 4 mph 1013.2mb 76f 76f
12:38am 2 4 mph 1013.4mb 77f 77f
12:23am 2 4 mph 1013.5mb 77f 77f
12:08am 2 4 mph 1013.7mb 77f 77f
Wed 05/20 11:53pm 2 4 mph 1013.5mb 77f 77f
11:38pm 4 7 mph 1013.3mb 77f 77f
11:23pm 7 9 mph 1013.2mb 77f 77f
11:08pm 4 9 mph 1013.2mb 77f 77f
10:53pm 7 9 mph 1013.2mb 77f 77f
10:38pm 2 7 mph 1013.2mb 77f 77f
10:23pm 4 7 mph 1013.3mb 77f 77f
10:08pm 4 9 mph 1013.2mb 77f 77f
9:53pm 4 7 mph 1013.1mb 77f 77f
9:38pm 4 7 mph 1013.1mb 77f 77f
9:23pm 7 9 mph 1012.8mb 77f 77f
9:08pm 7 9 mph 1012.7mb 77f 77f
8:53pm 7 9 mph 1012.4mb 77f 77f
7:53pm 9 11 mph 1012.3mb 77f 77f
6:53pm 9 11 mph 1012.4mb 77f 77f
5:53pm 11 16 mph 1012.5mb 77f 78f
4:53pm 11 13 mph 1012.6mb 78f 79f
4:08pm 9 11 mph 1012.4mb 78f 79f
3:53pm 9 11 mph 1012.4mb 78f 79f
3:38pm 11 13 mph 1012.7mb 78f 79f
3:23pm 9 13 mph 1012.7mb 78f 80f
3:08pm 9 11 mph 1012.6mb 78f 80f
2:08pm 7 9 mph 1013mb 77f 79f
1:53pm 7 9 mph 1013.1mb 77f 79f
1:38pm 7 9 mph 1013.2mb 77f 78f
1:23pm 7 9 mph 1013.4mb 77f 78f
1:08pm 7 9 mph 1013.5mb 77f 78f
12:53pm 7 9 mph 1013.8mb 77f 78f
12:38pm 4 7 mph 1013.8mb 76f 78f
12:23pm 4 7 mph 1013.8mb 76f 78f
12:08pm 4 7 mph 1014mb 76f 78f
11:53am 4 7 mph 1014mb 77f 78f
11:38am 2
mph
1014mb 77f 79f
11:23am 2 4 mph 1013.8mb 76f 78f
11:08am 4 7 mph 1013.9mb 76f 78f
10:53am 7 9 mph 1013.7mb 76f 77f
10:38am 7 9 mph 1013.6mb 76f 77f
10:23am 7 9 mph 1013.4mb 76f 77f
10:08am 7 11 mph 1013.2mb 76f 76f
9:53am 7 9 mph 1013.2mb 76f 76f
9:38am 7 9 mph 1013.4mb 76f 76f
9:23am 7 11 mph 1013.7mb 76f 76f
9:08am 7 9 mph 1013.6mb 76f 76f
8:53am 7 9 mph 1013.7mb 76f 75f
8:38am 4 7 mph 1013.6mb 76f 75f
8:23am 4 7 mph 1013.5mb 76f 75f
8:08am 4 7 mph 1013.5mb 76f 75f
7:53am 4 7 mph 1013.5mb 76f 75f
7:38am 4 7 mph 1013.3mb 76f 74f
7:23am 4 7 mph 1013.1mb 76f 74f
7:08am 4 7 mph 1013mb 76f 74f
6:53am 4 7 mph 1012.8mb 76f 74f
6:38am 4 7 mph 1012.8mb 76f 73f
6:23am 4 9 mph 1012.7mb 76f 73f
6:08am 7 9 mph 1012.5mb 76f 73f
5:53am 7 9 mph 1012.3mb 76f 74f
5:38am 7 9 mph 1012.4mb 76f 74f
5:23am 4 7 mph 1012.4mb 76f 74f
5:08am 4 7 mph 1012.5mb 76f 74f
4:53am 2 4 mph 1012.5mb 76f 74f
4:38am 4 7 mph 1012.7mb 76f 74f
4:23am 4 7 mph 1012.7mb 76f 74f
4:08am 7 9 mph 1012.8mb 76f 74f
3:53am 7 9 mph 1012.7mb 76f 74f
3:38am 7 9 mph 1012.6mb 76f 74f
3:23am 9 11 mph 1012.6mb 76f 74f
3:08am 9 11 mph 1012.5mb 76f 74f
2:53am 9 11 mph 1012.5mb 76f 74f
2:38am 9 11 mph 1012.6mb 76f 74f
2:23am 9 11 mph 1012.9mb 76f 74f
2:08am 9 11 mph 1012.8mb 76f 74f
1:53am 7 9 mph 1012.9mb 76f 75f
1:38am 7 9 mph 1013.2mb 76f 75f
1:23am 7 9 mph 1013.2mb 76f 75f
1:08am 7 9 mph 1013.3mb 76f 75f
12:53am 7 9 mph 1013.5mb 76f 75f
12:38am 7 9 mph 1013.6mb 76f 75f
12:23am 7 9 mph 1013.5mb 76f 76f
12:08am 7 9 mph 1013.6mb 76f 76f
Tue 05/19 11:53pm 7 9 mph 1013.7mb 76f 76f
11:38pm 9 11 mph 1013.9mb 76f 76f
11:23pm 9 13 mph 1014mb 76f 76f
11:08pm 9 13 mph 1014.1mb 76f 76f
10:53pm 11 13 mph 1014.2mb 76f 75f
10:38pm 9 13 mph 1014.3mb 76f 75f
10:23pm 9 11 mph 1014.2mb 76f 74f
10:08pm 11 16 mph 1014.1mb 76f 74f
9:53pm 11 16 mph 1014mb 76f 74f
9:38pm 11 16 mph 1013.8mb 76f 74f
9:23pm 9 13 mph 1013.7mb 76f 73f
9:08pm 9 11 mph 1013.7mb 76f 73f
8:53pm 9 13 mph 1013.9mb 76f 73f
8:38pm 2 7 mph 1014.2mb 76f 74f
8:23pm 9 13 mph 1014.3mb 76f 74f
8:08pm 11 16 mph 1014.2mb 76f 74f
7:53pm 9 16 mph 1014.1mb 76f 76f
7:38pm 9 16 mph 1014mb 76f 76f
7:23pm 11 16 mph 1013.9mb 76f 77f
7:08pm 13 16 mph 1013.6mb 76f 77f
6:53pm 16 20 mph 1013.5mb 76f 77f
6:38pm 16 20 mph 1013.6mb 76f 77f
6:23pm 18 25 mph 1013.3mb 76f 77f
6:08pm 18 25 mph 1012.6mb 76f 76f
5:53pm 20 25 mph 1012.4mb 76f 76f
5:38pm 20 27 mph 1012.7mb 76f 77f
5:23pm 22 27 mph 1012.6mb 76f 77f
5:08pm 20 27 mph 1012.8mb 76f 76f
4:53pm 20 25 mph 1012.7mb 76f 76f
4:38pm 20 27 mph 1013.1mb 76f 76f
4:23pm 18 25 mph 1013.2mb 76f 77f
4:08pm 18 25 mph 1013.3mb 76f 77f
3:53pm 18 22 mph 1013.4mb 76f 77f
3:38pm 18 22 mph 1013.6mb 76f 77f
3:23pm 18 25 mph 1013.8mb 76f 77f
3:08pm 18 25 mph 1013.8mb 76f 78f
2:53pm 18 25 mph 1014mb 76f 77f
2:38pm 18 25 mph 1014.3mb 76f 77f
2:23pm 18 25 mph 1014.5mb 76f 77f
2:08pm 18 22 mph 1014.5mb 76f 76f